TimeMDT,TemperatureF,Dew PointF,Humidity,Sea Level PressureIn,VisibilityMPH,Wind Direction,Wind SpeedMPH,Gust SpeedMPH,PrecipitationIn,Events,Conditions,WindDirDegrees,DateUTC
12:15 AM,26.6,5.0,40,30.27,10.0,SE,8.1,-,N/A,,Clear,130,2013-03-26 06:15:00
12:35 AM,26.6,5.0,40,30.26,10.0,SE,9.2,-,N/A,,Clear,130,2013-03-26 06:35:00
12:55 AM,26.6,5.0,40,30.26,10.0,SE,5.8,-,N/A,,Clear,140,2013-03-26 06:55:00
1:15 AM,24.8,5.0,43,30.27,10.0,SE,6.9,-,N/A,,Clear,130,2013-03-26 07:15:00
1:35 AM,26.6,5.0,40,30.26,10.0,SE,9.2,-,N/A,,Clear,140,2013-03-26 07:35:00
1:55 AM,24.8,5.0,43,30.26,10.0,SE,9.2,-,N/A,,Clear,130,2013-03-26 07:55:00
2:15 AM,24.8,6.8,46,30.26,10.0,SE,8.1,-,N/A,,Clear,130,2013-03-26 08:15:00
2:35 AM,24.8,6.8,46,30.25,10.0,SE,9.2,-,N/A,,Clear,140,2013-03-26 08:35:00
2:55 AM,24.8,6.8,46,30.25,10.0,SE,8.1,-,N/A,,Clear,140,2013-03-26 08:55:00
3:15 AM,23.0,5.0,46,30.24,10.0,South,4.6,-,N/A,,Clear,180,2013-03-26 09:15:00
3:35 AM,24.8,6.8,46,30.23,10.0,Calm,Calm,-,N/A,,Clear,0,2013-03-26 09:35:00
3:55 AM,24.8,6.8,46,30.23,10.0,Calm,Calm,-,N/A,,Clear,0,2013-03-26 09:55:00
4:15 AM,24.8,6.8,46,30.23,10.0,South,3.5,-,N/A,,Clear,180,2013-03-26 10:15:00
4:35 AM,24.8,6.8,46,30.23,10.0,SSE,3.5,-,N/A,,Clear,150,2013-03-26 10:35:00
4:55 AM,24.8,6.8,46,30.22,10.0,SSE,3.5,-,N/A,,Clear,150,2013-03-26 10:55:00
5:15 AM,24.8,6.8,46,30.22,10.0,Calm,Calm,-,N/A,,Clear,0,2013-03-26 11:15:00
5:35 AM,24.8,6.8,46,30.22,10.0,Calm,Calm,-,N/A,,Clear,0,2013-03-26 11:35:00
5:55 AM,24.8,6.8,46,30.23,10.0,SSW,3.5,-,N/A,,Clear,210,2013-03-26 11:55:00
6:15 AM,24.8,6.8,46,30.23,10.0,Calm,Calm,-,N/A,,Clear,0,2013-03-26 12:15:00
6:35 AM,24.8,6.8,46,30.23,10.0,SW,3.5,-,N/A,,Clear,220,2013-03-26 12:35:00
6:55 AM,24.8,6.8,46,30.23,10.0,Calm,Calm,-,N/A,,Clear,0,2013-03-26 12:55:00
7:15 AM,24.8,6.8,46,30.24,10.0,Calm,Calm,-,N/A,,Clear,0,2013-03-26 13:15:00
7:35 AM,24.8,6.8,46,30.24,10.0,WNW,3.5,-,N/A,,Clear,290,2013-03-26 13:35:00
7:55 AM,26.6,6.8,43,30.24,10.0,WNW,4.6,-,N/A,,Clear,290,2013-03-26 13:55:00
8:15 AM,28.4,6.8,40,30.24,10.0,NW,4.6,-,N/A,,Clear,320,2013-03-26 14:15:00
8:35 AM,30.2,6.8,37,30.25,10.0,NNE,3.5,-,N/A,,Clear,20,2013-03-26 14:35:00
8:55 AM,32.0,6.8,35,30.25,10.0,Calm,Calm,-,N/A,,Clear,0,2013-03-26 14:55:00
9:15 AM,33.8,6.8,32,30.25,10.0,Calm,Calm,-,N/A,,Clear,0,2013-03-26 15:15:00
9:35 AM,37.4,6.8,28,30.24,10.0,Calm,Calm,-,N/A,,Clear,0,2013-03-26 15:35:00
9:55 AM,39.2,6.8,26,30.24,10.0,NE,4.6,-,N/A,,Clear,50,2013-03-26 15:55:00
10:15 AM,41.0,6.8,24,30.24,10.0,NE,4.6,-,N/A,,Partly Cloudy,40,2013-03-26 16:15:00
10:35 AM,44.6,8.6,23,30.24,10.0,ESE,5.8,-,N/A,,Partly Cloudy,110,2013-03-26 16:35:00
10:55 AM,46.4,6.8,20,30.24,10.0,SE,4.6,-,N/A,,Partly Cloudy,140,2013-03-26 16:55:00
11:15 AM,48.2,6.8,19,30.23,10.0,SE,4.6,-,N/A,,Clear,130,2013-03-26 17:15:00
11:35 AM,50.0,6.8,17,30.23,10.0,East,5.8,-,N/A,,Clear,100,2013-03-26 17:35:00
11:55 AM,51.8,6.8,16,30.22,10.0,South,6.9,-,N/A,,Clear,170,2013-03-26 17:55:00
12:15 PM,51.8,6.8,16,30.22,10.0,SSE,8.1,-,N/A,,Clear,150,2013-03-26 18:15:00
12:35 PM,53.6,6.8,15,30.22,10.0,South,5.8,-,N/A,,Clear,180,2013-03-26 18:35:00
12:55 PM,55.4,8.6,15,30.20,10.0,SSW,9.2,-,N/A,,Clear,210,2013-03-26 18:55:00
1:15 PM,55.4,6.8,14,30.20,10.0,Calm,Calm,-,N/A,,Clear,0,2013-03-26 19:15:00
1:35 PM,57.2,8.6,14,30.19,10.0,ESE,6.9,-,N/A,,Clear,120,2013-03-26 19:35:00
1:55 PM,57.2,8.6,14,30.18,10.0,North,9.2,-,N/A,,Clear,360,2013-03-26 19:55:00
2:15 PM,59.0,6.8,13,30.17,10.0,SW,16.1,20.7,N/A,,Clear,230,2013-03-26 20:15:00
2:35 PM,59.0,6.8,13,30.17,10.0,WSW,17.3,23.0,N/A,,Clear,240,2013-03-26 20:35:00
2:55 PM,59.0,6.8,13,30.16,10.0,SW,17.3,28.8,N/A,,Clear,230,2013-03-26 20:55:00
3:15 PM,59.0,6.8,13,30.15,10.0,SSW,17.3,24.2,N/A,,Clear,210,2013-03-26 21:15:00
3:35 PM,57.2,6.8,13,30.14,10.0,SSW,15.0,21.9,N/A,,Clear,210,2013-03-26 21:35:00
3:55 PM,57.2,6.8,13,30.13,10.0,South,18.4,25.3,N/A,,Clear,190,2013-03-26 21:55:00
4:15 PM,57.2,6.8,13,30.12,10.0,SSW,18.4,25.3,N/A,,Clear,200,2013-03-26 22:15:00
4:35 PM,57.2,6.8,13,30.12,10.0,SW,17.3,25.3,N/A,,Clear,220,2013-03-26 22:35:00
4:55 PM,55.4,6.8,14,30.12,10.0,SW,16.1,-,N/A,,Clear,220,2013-03-26 22:55:00
5:15 PM,55.4,6.8,14,30.11,10.0,WSW,24.2,28.8,N/A,,Clear,240,2013-03-26 23:15:00
5:35 PM,55.4,6.8,14,30.12,10.0,SW,21.9,28.8,N/A,,Clear,220,2013-03-26 23:35:00
5:55 PM,55.4,6.8,14,30.12,10.0,SW,19.6,24.2,N/A,,Clear,230,2013-03-26 23:55:00
6:15 PM,51.8,6.8,16,30.13,10.0,SW,17.3,26.5,N/A,,Clear,220,2013-03-27 00:15:00
6:35 PM,51.8,6.8,16,30.13,10.0,WSW,19.6,25.3,N/A,,Clear,240,2013-03-27 00:35:00
6:55 PM,50.0,6.8,17,30.13,10.0,SW,12.7,23.0,N/A,,Clear,230,2013-03-27 00:55:00
7:15 PM,50.0,6.8,17,30.13,10.0,SW,6.9,-,N/A,,Clear,220,2013-03-27 01:15:00
7:35 PM,48.2,6.8,19,30.13,10.0,SSW,3.5,-,N/A,,Clear,210,2013-03-27 01:35:00
7:55 PM,46.4,6.8,20,30.13,10.0,SSE,3.5,-,N/A,,Clear,160,2013-03-27 01:55:00
8:15 PM,46.4,6.8,20,30.13,10.0,SSE,4.6,-,N/A,,Clear,150,2013-03-27 02:15:00
8:35 PM,46.4,8.6,22,30.13,10.0,SSE,5.8,-,N/A,,Clear,160,2013-03-27 02:35:00
8:55 PM,46.4,8.6,22,30.13,10.0,South,6.9,-,N/A,,Clear,190,2013-03-27 02:55:00
9:15 PM,48.2,8.6,20,30.12,10.0,SW,19.6,26.5,N/A,,Clear,220,2013-03-27 03:15:00
9:35 PM,48.2,8.6,20,30.13,10.0,SW,16.1,20.7,N/A,,Clear,220,2013-03-27 03:35:00
9:55 PM,46.4,8.6,22,30.14,10.0,SSW,10.4,-,N/A,,Clear,210,2013-03-27 03:55:00
10:15 PM,46.4,8.6,22,30.14,10.0,South,9.2,-,N/A,,Clear,190,2013-03-27 04:15:00
10:35 PM,44.6,8.6,23,30.14,10.0,South,6.9,-,N/A,,Clear,190,2013-03-27 04:35:00
10:55 PM,44.6,8.6,23,30.14,10.0,ESE,4.6,-,N/A,,Clear,120,2013-03-27 04:55:00
11:15 PM,44.6,8.6,23,30.14,10.0,SSE,3.5,-,N/A,,Clear,160,2013-03-27 05:15:00
11:35 PM,46.4,8.6,22,30.14,10.0,Calm,Calm,-,N/A,,Clear,0,2013-03-27 05:35:00
11:55 PM,46.4,8.6,22,30.14,10.0,Calm,Calm,-,N/A,,Clear,0,2013-03-27 05:55:00